Downstream station:
SHEF ID: BZRK1 SF COTTONWOOD R NR BAZAAR, KS
STATION TYPE:
PRECIP PRECIP(A) STAGE RIV-FLOW BAT-LOAD
in in ft cfs volt
Ccp-Rev Ccp-Rev Ccp-Rev Ccp-Rev Ccp-Rev
(US/Central)
09/09 00:00 0.00 ---- 7.35 68 12.77
09/09 01:00 0.00 ---- 7.35 68 12.71
09/09 02:00 0.00 ---- 7.34 67 12.71
09/09 03:00 0.00 ---- 7.33 66 12.71
09/09 04:00 0.00 ---- 7.33 66 12.65
09/09 05:00 0.00 ---- 7.31 64 12.65
09/09 06:00 0.00 ---- 7.31 64 12.60
09/09 07:00 0.00 ---- 7.31 64 12.60
09/09 08:00 0.00 ---- 7.29 63 12.65
09/09 09:00 0.00 ---- 7.28 62 13.36
09/09 10:00 0.00 ---- 7.26 60 13.71
09/09 11:00 0.00 ---- 7.26 60 13.94
09/09 12:00 0.00 ---- 7.25 59 13.83
09/09 13:00 0.00 ---- 7.23 57 13.71
09/09 14:00 0.00 ---- 7.23 57 13.71
09/09 15:00 0.00 ---- 7.22 56 13.65
09/09 16:00 0.00 ---- 7.21 56 13.65
09/09 17:00 0.00 ---- 7.22 56 13.65
09/09 18:00 0.00 ---- 7.20 55 13.59
09/09 19:00 0.00 ---- 7.20 55 13.48
09/09 20:00 0.00 ---- 7.20 55 13.00
09/09 21:00 0.00 ---- 7.20 55 12.83
09/09 22:00 0.00 ---- 7.19 54 12.71
09/09 23:00 0.00 ---- 7.19 54 12.77